Flag for India Weather past 2 weeks in Chhindwara, Madhya Pradesh, India

Now
104 °F

Haze.


Feels Like: 107 °F
Forecast: 80 / 101 °F
Wind: 5 mph from West

Location: Nagpur Sonegaon


UV Index: 10 (Very high)

Visibility: 3 mi


Pressure: 29.77 "Hg

Humidity: 26%

Dew point: 63 °F

Location of ChhindwaraLocation

Historic Weather in Chhindwara

°F

Chhindwara temperature yesterday

Maximum temperature yesterday: 109 °F (at 2:40 PM)
Minimum temperature yesterday: 73 °F (at 6:40 AM)
Average temperature yesterday: 95 °F

Past Weeks' High & Low Weather Summary

 TemperatureHumidityPressure
High111 °F (Apr 7, 1:40 PM)84% (Apr 14, 6:40 PM)29.95 "Hg (Apr 14, 6:40 PM)
Low68 °F (Apr 10, 5:40 AM)9% (Apr 12, 12:40 PM)29.62 "Hg (Apr 13, 1:40 PM)
Average91 °F28%29.82 "Hg
* Reported Apr 2 2:40 PM — Apr 17 10:40 AM, Chhindwara, Weather by CustomWeather, © 2014

Note: Actual official high and low records may vary slightly from our data, if they occured in-between our weather recording intervals... More about our weather records

Advertising

Historic Weather Conditions — Data for Previous 24 hours

 ConditionsComfort  
Time TempWeatherWind HumidityBarometerVisibility
10:40 AM
Apr 17
99 °FHaze.5 mph31%29.80 "Hg3 mi
9:40 AM95 °FHaze.7 mph34%29.80 "Hg3 mi
8:40 AM88 °FHaze.8 mph46%29.80 "Hg3 mi
7:40 AM82 °FHaze.2 mph51%29.80 "Hg3 mi
6:40 AM77 °FHaze.3 mph57%29.77 "Hg3 mi
12:40 AM82 °FHaze.2 mph45%29.77 "Hg3 mi
11:40 PM
Apr 16
84 °FHaze.2 mph43%29.77 "Hg3 mi
10:40 PM84 °FPassing clouds.2 mph40%29.77 "Hg3 mi
9:40 PM86 °FHaze.2 mph38%29.74 "Hg3 mi
8:40 PM88 °FPassing clouds.2 mph35%29.74 "Hg3 mi
7:40 PM90 °FHaze.3 mph33%29.71 "Hg3 mi
6:40 PM95 °FScattered clouds.7 mph32%29.71 "Hg3 mi
5:40 PM102 °FScattered clouds.3 mph21%29.68 "Hg3 mi
4:40 PM104 °FScattered clouds.9 mph21%29.65 "Hg3 mi
3:40 PM108 °FScattered clouds.9 mph20%29.68 "Hg4 mi
2:40 PM109 °FScattered clouds.3 mph19%29.71 "Hg4 mi
1:40 PM108 °FPassing clouds.5 mph22%29.74 "Hg4 mi
12:40 PM104 °FClear.9 mph28%29.80 "Hg4 mi
Weather by CustomWeather, © 2014

See weather overview